Wind_Speed
41 41 41 40 38 37 37 39 40 39 39 35 29 24 23 17 15 15 17 26 28 25 21 19 15 11 7 4 5 5 3 2 4 4 4 3 8 11 12 12 16 17 21 21 17 16 25 24 15 23 25 33 34 33
36 36 35 34 34 33 35 36 38 38 38 30 29 25 23 19 17 18 19 24 30 28 23 20 20 16 11 8 5 6 6 6 6 6 5 7 7 7 7 6 7 17 21 23 25 27 25 20 20 22 23 24 28 30
31 32 29 27 28 30 31 32 33 35 35 31 31 25 23 20 19 21 20 21 33 28 27 24 23 20 16 13 11 9 8 7 7 7 7 7 7 8 8 8 7 9 12 17 21 25 23 22 22 23 24 24 27 29
29 30 28 27 27 27 28 30 30 34 33 34 32 26 26 22 21 20 23 24 26 34 27 28 24 25 21 18 15 12 10 9 8 7 7 7 8 7 7 7 7 7 10 14 16 16 17 16 18 18 19 21 24 24
28 27 27 27 27 26 24 24 25 27 30 33 34 28 26 25 23 21 23 26 27 27 35 35 29 26 24 21 18 15 12 12 11 10 11 11 10 10 10 11 11 10 11 12 15 12 14 15 15 15 15 14 15 16
27 26 25 25 26 26 26 26 26 26 22 27 35 30 27 27 25 23 23 27 27 26 29 38 36 29 27 23 21 18 15 13 14 14 12 11 11 11 11 12 13 11 15 17 18 17 17 16 17 18 18 19 19 20
24 23 23 22 24 26 26 26 25 27 25 28 36 31 26 27 26 26 25 23 29 29 31 39 39 32 28 25 22 21 18 15 14 13 12 11 10 9 9 10 8 12 15 15 15 17 18 18 20 20 23 23 25 26
22 24 25 27 29 26 27 26 24 26 26 29 36 30 26 26 26 26 25 28 30 32 35 40 39 30 28 26 24 23 22 19 18 15 15 15 13 10 10 12 13 15 16 18 20 22 24 23 26 25 27 29 30 31
22 25 26 27 29 27 26 27 24 25 26 33 37 28 23 24 25 24 24 24 29 34 37 37 32 31 27 27 27 24 23 22 19 20 20 18 16 13 11 12 13 14 16 17 17 19 23 25 27 27 27 28 30 32
23 23 24 27 27 25 24 23 20 22 27 34 30 24 22 22 24 22 20 18 24 29 31 28 29 23 28 25 25 24 23 22 20 20 19 20 17 16 13 13 15 16 18 17 18 19 20 20 21 25 31 33 34 35
21 22 24 26 25 20 18 17 17 21 28 27 23 21 22 22 23 21 19 20 23 26 29 28 28 27 28 26 26 27 24 23 22 20 20 18 18 15 16 17 18 19 19 19 18 20 23 25 26 27 29 30 32 33
21 23 25 24 19 16 17 18 20 23 23 20 17 18 18 21 23 22 24 24 25 28 27 25 24 24 26 26 25 22 23 23 23 21 19 16 17 15 16 18 20 16 15 19 21 21 22 25 28 29 30 30 32 33
22 23 21 17 15 17 17 18 17 16 15 14 15 18 19 22 22 20 20 20 23 27 27 29 28 24 22 30 32 25 23 23 21 24 19 17 15 16 17 14 13 15 18 18 20 23 25 25 26 27 27 29 29 30
22 21 16 15 15 16 15 12 8 9 11 14 17 16 18 17 15 15 17 20 24 22 25 27 24 19 18 21 27 26 23 19 21 20 18 17 15 15 14 15 17 17 16 20 23 23 24 25 25 26 27 26 27 29
20 16 16 15 15 17 13 13 17 16 11 17 17 16 13 13 12 13 14 17 21 19 18 16 16 19 20 22 24 21 17 17 14 14 17 13 12 11 13 14 13 15 17 20 22 23 22 22 22 21 23 24 25 27
18 15 15 18 16 15 15 16 18 15 16 21 18 15 14 15 15 16 17 19 19 19 18 14 13 16 21 22 21 19 16 14 15 15 15 12 13 12 11 10 11 14 16 20 20 19 20 18 18 18 18 21 24 29
15 16 15 15 14 16 16 17 18 19 21 20 19 18 18 16 15 17 18 17 20 19 19 20 18 19 20 20 21 21 18 18 15 15 14 13 11 10 11 11 13 14 17 22 21 19 18 17 16 16 18 23 25 28
17 17 17 15 16 17 17 17 15 15 19 21 21 19 18 17 16 15 15 17 19 21 23 18 16 18 21 22 21 21 18 16 15 16 13 12 11 12 11 11 14 16 19 22 21 19 17 16 15 16 20 23 24 27
16 17 18 17 18 18 18 17 15 14 15 17 17 18 16 16 15 13 13 14 15 20 26 27 22 23 23 23 21 19 15 16 17 15 13 13 12 11 11 12 15 16 19 22 21 18 17 16 16 18 20 21 23 26
18 19 17 17 17 18 18 16 16 15 17 18 18 17 16 16 15 15 14 13 13 15 23 23 24 21 20 21 23 18 17 16 16 14 14 12 10 10 12 14 15 16 18 20 20 18 16 16 17 18 20 20 21 24
22 19 17 17 17 17 17 17 17 18 18 18 19 19 18 16 15 15 15 14 14 14 18 22 25 25 27 25 16 16 15 15 15 14 16 13 11 12 15 15 16 18 18 19 20 18 17 17 18 17 18 19 20 21
17 16 16 15 14 14 13 15 15 16 15 15 14 14 14 13 14 13 13 14 14 16 21 24 27 29 26 20 17 16 15 14 13 15 15 13 13 14 16 17 18 19 19 18 18 18 18 17 17 17 17 17 18 20
17 16 15 14 13 12 12 13 13 13 13 13 13 14 15 14 14 13 11 12 16 18 20 22 25 25 23 19 17 17 14 15 15 16 16 15 16 16 18 20 20 20 20 19 18 17 17 17 16 16 16 17 16 18
15 14 14 13 11 10 11 13 13 13 13 13 13 11 11 12 12 12 13 12 11 9 9 13 18 19 19 18 17 15 14 15 16 17 16 15 17 19 20 21 23 23 21 20 19 18 17 17 17 16 15 15 15 16
13 13 12 11 10 10 10 11 12 13 10 9 12 12 11 9 9 9 9 7 4 9 10 12 14 16 17 16 15 14 15 16 17 18 18 20 22 23 25 25 25 24 22 22 21 20 19 17 17 17 14 15 16 16
12 13 12 12 12 12 11 10 8 8 9 11 14 14 13 12 11 10 7 10 12 10 11 12 13 14 13 12 12 12 14 15 17 19 20 23 24 25 27 27 27 26 26 24 24 22 20 19 18 18 16 15 15 14
12 12 12 14 12 13 13 10 13 12 13 16 18 18 15 12 11 12 11 11 9 8 6 8 13 18 17 12 12 13 14 17 20 24 24 26 27 27 28 30 30 29 28 26 30 26 19 20 19 18 19 17 16 16
12 12 16 14 12 13 14 15 14 9 11 17 18 17 14 14 8 12 13 14 12 10 8 7 7 9 12 15 16 17 19 19 21 22 21 25 27 30 31 32 34 32 31 31 37 32 21 19 19 18 19 19 19 18
12 13 15 14 14 18 24 14 16 22 21 22 21 14 17 12 12 7 5 6 6 7 9 11 13 13 14 16 17 17 19 22 22 26 27 27 26 26 26 25 25 29 30 34 38 33 22 17 16 16 18 18 18 18
13 14 14 16 15 19 18 19 19 16 15 17 15 10 8 8 7 6 6 6 8 9 12 14 15 16 18 18 20 23 24 25 27 25 30 29 25 22 17 20 22 24 28 29 29 28 18 15 15 16 16 16 16 17
11 13 13 15 16 17 23 14 14 11 6 3 2 4 6 4 4 7 9 11 12 13 14 16 18 20 22 24 22 22 24 28 29 29 25 18 17 20 22 26 27 29 24 20 22 19 13 12 16 18 17 16 16 16
11 12 15 16 14 13 17 20 19 16 13 11 9 9 10 9 9 10 11 13 15 16 18 19 19 19 20 21 22 23 24 25 28 21 18 17 17 21 26 17 13 10 11 12 11 11 13 15 17 18 18 17 17 17
13 14 14 13 12 13 14 15 15 13 11 10 9 10 10 11 13 14 16 18 19 19 18 17 16 16 17 17 18 19 19 19 17 22 22 21 9 3 5 4 5 9 10 10 12 12 13 14 16 17 18 18 18 17
Wind_Direction
285 286 285 283 280 277 274 267 263 267 274 281 274 257 254 249 239 228 225 215 208 210 205 202 197 188 180 181 183 152 146 162 184 186 207 181 193 193 216 235 238 229 220 218 206 223 235 249 224 225 229 231 241 240
284 286 288 285 282 283 278 266 260 258 261 262 265 244 244 243 240 223 220 216 208 212 207 212 203 199 194 192 183 157 151 150 148 162 174 174 182 196 201 225 233 224 225 222 222 226 237 239 230 227 233 235 241 244
284 287 292 287 283 283 282 276 263 250 250 249 256 231 236 237 236 226 220 217 210 211 214 214 209 206 198 193 198 193 174 165 159 158 158 168 185 203 213 229 226 219 218 223 229 239 245 244 240 241 247 247 245 246
282 286 283 273 279 283 282 276 266 255 249 245 252 220 226 231 232 227 223 218 215 215 218 222 216 214 207 205 204 207 203 201 195 194 191 190 199 206 209 211 215 218 219 224 233 235 239 237 235 236 239 239 240 243
278 278 279 283 282 287 287 275 263 261 257 248 255 216 219 227 230 227 221 217 217 216 217 226 217 217 218 211 213 218 218 220 221 221 221 222 223 229 225 225 227 227 230 230 235 231 233 226 223 222 223 229 235 241
274 278 280 284 278 278 284 282 269 261 266 259 245 212 216 224 226 225 222 221 220 223 223 228 223 220 221 220 214 221 228 231 231 232 230 221 218 226 234 245 245 239 240 238 242 236 237 236 234 234 240 241 245 250
274 282 292 287 286 277 270 272 273 270 264 252 235 206 215 224 225 229 231 232 229 229 227 224 226 221 223 222 221 220 226 235 238 238 234 221 220 234 243 254 270 245 244 246 242 242 240 238 240 243 246 248 249 250
283 285 284 291 291 283 271 269 276 267 257 245 219 204 212 222 228 228 231 233 236 229 227 222 223 217 222 222 223 225 230 236 238 239 239 234 233 249 258 268 274 268 255 250 251 253 254 254 257 257 258 256 255 255
280 281 282 286 286 278 275 273 266 264 250 236 212 198 208 221 224 226 234 245 236 224 219 211 213 218 219 222 226 229 233 239 243 241 240 242 245 257 263 269 288 276 273 266 264 265 263 265 265 262 260 260 263 265
273 279 275 280 274 270 266 257 259 251 246 218 194 195 206 219 219 224 234 237 215 209 202 194 211 223 218 223 227 232 234 240 245 245 244 243 248 259 269 269 280 279 268 266 270 265 266 269 273 269 268 270 270 271
271 272 272 269 269 268 270 272 265 246 216 193 195 195 211 216 216 219 222 215 202 194 192 203 211 214 219 224 232 236 239 241 243 241 246 243 254 264 268 271 285 285 277 274 275 276 276 277 276 273 272 272 270 270
264 268 267 265 263 273 272 254 226 208 193 182 195 201 207 217 219 219 219 217 214 212 206 215 221 225 226 228 237 237 237 239 237 239 246 252 258 272 277 284 290 279 274 275 276 274 274 276 276 276 275 275 275 274
264 262 255 255 261 260 225 200 185 175 173 180 192 206 210 218 218 220 222 225 227 227 221 227 239 238 231 239 225 235 235 237 238 240 247 255 268 277 281 275 278 283 283 276 274 280 286 284 282 282 282 281 280 280
261 249 244 248 246 218 186 167 166 175 190 204 212 213 212 214 214 220 223 223 223 218 217 225 239 247 249 226 219 229 233 232 237 236 239 248 271 283 277 271 279 290 293 294 294 292 288 285 283 283 284 284 284 284
240 232 231 230 196 177 178 190 187 195 183 198 193 187 199 208 211 212 210 216 214 224 225 235 236 231 224 210 218 223 224 220 223 238 254 263 273 266 269 280 294 301 300 299 297 292 289 288 288 287 287 289 290 291
231 226 223 196 180 191 195 194 193 204 195 193 212 225 218 218 238 227 225 226 225 223 221 208 205 216 218 218 219 213 214 218 235 237 251 250 254 265 280 287 299 304 305 307 305 303 300 292 291 292 295 298 301 303
221 225 206 189 201 203 205 200 199 201 203 213 214 222 230 225 229 229 225 229 222 212 205 204 210 213 224 217 208 213 219 230 234 243 235 242 255 265 265 281 296 309 313 313 313 313 302 297 298 303 306 309 315 317
228 222 200 200 199 199 200 200 200 205 205 209 214 213 214 218 222 219 219 217 213 212 206 198 205 208 206 207 214 223 224 227 234 230 234 244 254 256 267 284 301 313 316 313 319 316 308 305 305 310 316 319 323 327
214 207 191 197 200 203 204 202 206 211 211 205 205 200 202 207 209 212 209 209 205 210 203 199 204 203 200 211 222 227 230 238 232 233 241 251 253 264 281 296 307 312 317 315 320 317 311 306 305 314 319 326 331 334
204 185 189 196 200 205 206 209 215 216 219 211 212 202 202 210 214 216 216 217 212 202 206 209 210 209 219 221 232 237 230 233 235 241 252 249 256 278 284 294 305 307 311 313 315 314 308 305 305 314 323 331 337 338
190 187 191 202 211 216 217 217 219 217 219 218 215 215 218 223 227 233 233 230 226 221 224 223 226 225 225 226 223 233 238 235 241 244 241 244 261 273 278 287 298 303 305 310 312 312 305 302 304 313 323 329 336 340
177 190 202 207 208 210 210 213 212 213 215 215 213 213 211 216 223 226 226 227 227 229 230 228 221 223 224 226 232 234 231 236 239 243 248 255 267 275 282 285 287 292 297 304 308 308 302 299 301 310 319 326 335 343
193 200 201 200 203 206 205 207 207 204 204 204 205 209 216 220 216 221 226 238 240 238 232 224 220 222 226 229 230 232 235 241 243 248 252 265 277 282 285 286 286 288 291 294 300 303 298 293 293 303 312 323 338 348
194 193 195 200 204 199 198 194 191 190 191 190 181 185 197 200 208 222 241 245 248 238 213 206 211 216 222 226 229 236 240 246 252 255 259 267 277 287 292 288 285 283 284 285 292 297 293 287 286 292 301 313 328 345
186 191 193 191 188 183 181 181 187 188 185 184 181 185 193 197 205 207 210 205 248 239 214 212 212 219 220 231 243 238 246 256 259 259 261 271 281 285 287 290 289 286 284 282 282 286 288 282 279 282 289 297 310 327
189 186 182 178 168 167 165 159 153 163 171 182 177 185 184 179 184 186 197 197 214 223 220 220 223 224 219 222 228 238 249 260 265 270 276 281 285 284 283 286 288 286 282 277 271 272 278 278 274 274 279 288 299 311
180 173 165 160 162 167 167 167 164 171 178 182 182 176 172 171 172 135 223 214 214 200 197 211 217 219 215 223 246 252 263 274 279 280 282 283 285 287 286 286 287 288 283 275 267 267 267 275 276 275 274 277 284 294
164 162 164 161 162 166 167 148 133 135 189 183 183 159 168 184 196 185 202 194 194 201 209 215 216 216 221 236 247 256 262 269 280 287 291 287 285 285 287 288 287 286 280 274 269 272 258 265 273 275 276 276 278 284
160 160 166 170 169 160 151 128 125 112 136 173 165 173 171 184 213 194 187 205 225 243 250 254 254 256 257 254 256 265 278 287 292 289 287 284 283 287 292 296 299 298 297 282 281 274 252 255 271 280 279 280 282 283
172 171 171 175 171 171 161 154 136 125 137 144 152 166 194 224 230 221 221 246 259 267 271 268 268 273 279 273 276 282 277 282 286 282 279 283 287 288 289 307 310 300 298 302 288 263 244 249 266 277 280 284 289 289
174 181 184 176 174 180 180 154 147 132 111 102 167 242 264 295 266 265 270 275 280 284 283 280 281 282 282 282 279 276 278 282 287 288 283 285 297 297 301 305 307 304 293 285 282 265 256 263 263 267 275 281 288 295
134 135 146 156 170 182 192 203 222 242 251 259 263 270 272 281 285 289 290 296 301 299 295 291 290 290 288 282 280 282 282 282 280 276 284 293 309 300 303 301 283 292 271 265 271 271 272 275 275 272 274 279 281 287
137 141 147 153 160 164 170 180 194 204 221 238 249 256 266 279 289 296 302 306 306 306 307 306 306 303 296 289 286 281 281 270 270 273 279 284 271 265 290 286 303 321 324 300 285 282 282 284 284 283 282 283 285 288
Height
5749 5748 5746 5744 5743 5743 5742 5742 5744 5746 5746 5747 5747 5746 5747 5747 5747 5748 5750 5752 5755 5758 5760 5763 5764 5766 5766 5767 5767 5766 5767 5766 5765 5765 5766 5766 5767 5769 5770 5771 5772 5775 5778 5782 5785 5785 5787 5784 5790 5794 5795 5798 5801 5805
5737 5736 5734 5732 5731 5730 5729 5729 5730 5733 5734 5736 5736 5737 5739 5741 5742 5742 5744 5746 5750 5752 5756 5760 5761 5762 5764 5765 5766 5766 5767 5766 5765 5766 5766 5766 5767 5768 5769 5770 5770 5772 5775 5777 5780 5779 5782 5785 5788 5789 5791 5794 5795 5798
5727 5726 5724 5723 5721 5720 5719 5718 5719 5720 5722 5725 5726 5728 5731 5733 5736 5737 5739 5741 5744 5748 5751 5754 5757 5759 5761 5762 5764 5765 5766 5766 5766 5766 5766 5767 5767 5768 5768 5769 5769 5770 5772 5773 5776 5777 5777 5779 5781 5784 5786 5788 5789 5792
5717 5716 5715 5714 5713 5712 5710 5709 5709 5709 5712 5713 5715 5718 5721 5725 5728 5731 5733 5736 5738 5742 5746 5749 5752 5754 5757 5758 5760 5763 5764 5765 5765 5765 5766 5766 5767 5768 5768 5769 5769 5770 5770 5772 5773 5774 5774 5775 5777 5779 5780 5782 5783 5785
5708 5707 5706 5704 5704 5703 5701 5700 5700 5701 5702 5704 5706 5708 5712 5717 5721 5724 5727 5730 5733 5736 5739 5741 5745 5749 5751 5755 5756 5759 5761 5762 5763 5763 5764 5765 5765 5766 5767 5767 5768 5768 5769 5769 5769 5770 5771 5772 5774 5775 5777 5778 5779 5780
5699 5699 5697 5696 5695 5695 5694 5693 5692 5692 5693 5695 5696 5699 5704 5709 5713 5717 5720 5724 5727 5729 5733 5735 5737 5743 5746 5750 5752 5755 5757 5758 5759 5760 5761 5761 5762 5763 5764 5764 5764 5765 5765 5765 5766 5767 5768 5769 5771 5772 5773 5774 5775 5775
5690 5689 5687 5686 5687 5687 5686 5685 5684 5684 5685 5685 5687 5691 5696 5702 5706 5709 5713 5719 5720 5722 5725 5728 5730 5737 5741 5744 5747 5750 5753 5754 5755 5756 5757 5758 5759 5760 5760 5760 5761 5761 5761 5762 5762 5763 5764 5765 5766 5767 5767 5768 5768 5768
5680 5680 5679 5678 5677 5677 5677 5677 5676 5676 5676 5677 5679 5683 5689 5694 5698 5702 5705 5708 5711 5713 5716 5720 5724 5733 5736 5740 5742 5746 5748 5750 5751 5753 5754 5754 5755 5756 5757 5756 5756 5756 5757 5757 5757 5757 5758 5759 5758 5759 5759 5759 5759 5759
5672 5672 5671 5671 5669 5668 5667 5667 5667 5668 5668 5669 5671 5676 5682 5687 5692 5695 5698 5699 5700 5705 5707 5714 5722 5727 5730 5733 5737 5740 5742 5744 5747 5747 5749 5751 5751 5752 5752 5752 5752 5752 5751 5751 5751 5750 5750 5751 5751 5751 5751 5751 5750 5750
5664 5664 5664 5663 5661 5660 5659 5658 5658 5659 5661 5663 5666 5671 5676 5682 5685 5689 5691 5692 5693 5697 5704 5714 5718 5724 5726 5727 5731 5735 5737 5739 5741 5742 5744 5745 5746 5747 5747 5747 5747 5746 5746 5745 5744 5744 5743 5743 5743 5743 5741 5741 5740 5739
5657 5657 5656 5655 5654 5653 5651 5651 5652 5653 5655 5659 5663 5667 5671 5677 5680 5683 5687 5690 5693 5697 5704 5709 5712 5716 5719 5723 5726 5728 5731 5733 5735 5737 5738 5740 5740 5742 5742 5742 5741 5740 5739 5739 5738 5738 5737 5736 5734 5733 5731 5730 5729 5728
5649 5649 5648 5648 5647 5647 5647 5647 5648 5650 5653 5657 5660 5664 5669 5673 5676 5680 5683 5687 5691 5696 5702 5706 5709 5711 5715 5717 5720 5724 5725 5727 5729 5731 5732 5734 5735 5736 5736 5735 5734 5733 5733 5733 5732 5730 5729 5727 5725 5724 5722 5721 5719 5717
5642 5642 5642 5641 5642 5643 5644 5645 5646 5648 5651 5654 5658 5662 5666 5669 5672 5676 5680 5684 5688 5692 5698 5700 5702 5704 5708 5708 5712 5716 5718 5720 5724 5725 5726 5728 5729 5729 5729 5729 5729 5728 5727 5726 5725 5723 5721 5719 5716 5714 5712 5711 5709 5707
5635 5636 5636 5637 5638 5640 5642 5644 5646 5648 5652 5655 5657 5660 5663 5666 5670 5673 5676 5680 5683 5688 5690 5693 5695 5697 5700 5702 5706 5710 5713 5716 5716 5719 5721 5722 5723 5723 5723 5723 5723 5722 5721 5719 5717 5715 5712 5709 5707 5705 5703 5701 5700 5697
5630 5630 5632 5634 5635 5637 5640 5642 5645 5647 5650 5653 5654 5658 5662 5665 5667 5671 5674 5677 5680 5683 5685 5688 5691 5694 5695 5697 5701 5704 5707 5709 5713 5715 5715 5716 5717 5717 5718 5718 5717 5716 5714 5712 5709 5706 5703 5701 5699 5697 5695 5694 5691 5688
5624 5626 5628 5630 5633 5636 5638 5640 5643 5645 5648 5652 5654 5657 5660 5663 5665 5668 5671 5673 5675 5677 5681 5685 5688 5689 5691 5694 5697 5700 5704 5706 5709 5710 5709 5712 5712 5713 5713 5713 5712 5710 5707 5704 5701 5699 5696 5694 5692 5690 5688 5685 5682 5678
5619 5622 5625 5628 5630 5633 5636 5638 5641 5643 5645 5648 5652 5654 5656 5660 5663 5664 5667 5670 5671 5674 5677 5680 5683 5686 5688 5689 5693 5696 5700 5702 5704 5704 5705 5707 5707 5707 5708 5707 5705 5703 5700 5697 5695 5692 5689 5687 5684 5682 5680 5677 5674 5670
5615 5618 5622 5625 5628 5631 5633 5636 5638 5640 5643 5645 5648 5651 5654 5657 5659 5660 5662 5664 5667 5669 5673 5677 5680 5682 5684 5687 5690 5693 5695 5697 5698 5699 5701 5701 5702 5702 5702 5701 5699 5697 5695 5692 5689 5686 5683 5682 5679 5676 5674 5670 5667 5662
5612 5615 5619 5622 5626 5628 5631 5634 5636 5638 5639 5642 5646 5649 5652 5654 5657 5658 5660 5661 5664 5666 5669 5673 5676 5679 5682 5684 5686 5688 5691 5692 5693 5696 5696 5697 5697 5697 5696 5695 5694 5692 5690 5686 5683 5680 5678 5676 5674 5671 5668 5664 5659 5654
5609 5613 5616 5620 5623 5626 5629 5632 5633 5635 5637 5640 5644 5646 5650 5652 5654 5656 5657 5660 5662 5665 5668 5671 5672 5675 5678 5680 5682 5685 5687 5688 5690 5691 5692 5692 5692 5692 5691 5690 5689 5687 5684 5681 5678 5675 5673 5671 5668 5666 5662 5658 5653 5649
5607 5611 5615 5618 5621 5623 5626 5627 5629 5632 5634 5637 5641 5644 5647 5649 5651 5653 5655 5657 5660 5663 5664 5666 5667 5669 5672 5674 5679 5681 5683 5684 5685 5686 5687 5687 5687 5686 5685 5684 5683 5681 5679 5676 5673 5670 5668 5666 5663 5660 5657 5654 5649 5644
5606 5610 5613 5616 5618 5620 5623 5625 5628 5630 5632 5635 5638 5641 5644 5646 5647 5649 5651 5652 5655 5658 5658 5659 5662 5664 5668 5673 5675 5677 5678 5679 5680 5680 5681 5682 5681 5681 5680 5678 5677 5674 5672 5670 5667 5665 5663 5660 5658 5656 5654 5650 5645 5640
5605 5609 5611 5614 5617 5619 5622 5623 5625 5628 5630 5633 5636 5638 5641 5643 5645 5646 5648 5649 5649 5650 5652 5655 5658 5661 5665 5668 5671 5672 5673 5674 5675 5675 5676 5676 5675 5674 5673 5671 5670 5668 5666 5664 5661 5659 5657 5655 5653 5651 5649 5646 5642 5637
5605 5608 5610 5613 5615 5617 5619 5620 5623 5626 5629 5631 5634 5637 5638 5640 5642 5644 5645 5646 5648 5649 5650 5652 5655 5658 5661 5663 5665 5667 5668 5669 5670 5670 5671 5670 5669 5668 5666 5665 5662 5660 5659 5657 5655 5653 5651 5649 5648 5646 5644 5642 5639 5635
5605 5608 5610 5611 5613 5616 5617 5620 5622 5625 5628 5631 5633 5635 5637 5639 5641 5642 5644 5646 5647 5648 5649 5651 5653 5655 5657 5659 5661 5662 5664 5664 5665 5665 5665 5664 5663 5662 5659 5658 5656 5654 5652 5650 5648 5646 5644 5643 5641 5640 5638 5637 5635 5632
5604 5606 5608 5610 5612 5615 5617 5620 5622 5625 5627 5630 5632 5634 5636 5638 5640 5641 5643 5645 5645 5646 5647 5648 5650 5652 5654 5655 5657 5658 5659 5659 5659 5659 5659 5657 5656 5654 5652 5650 5648 5646 5644 5642 5640 5637 5637 5636 5634 5634 5633 5631 5630 5628
5603 5605 5607 5610 5612 5614 5617 5620 5622 5624 5625 5627 5630 5632 5635 5637 5639 5641 5643 5643 5643 5644 5645 5645 5646 5648 5651 5652 5653 5654 5654 5654 5653 5652 5652 5649 5647 5646 5644 5642 5639 5638 5635 5634 5631 5629 5628 5629 5628 5627 5627 5626 5625 5624
5603 5605 5608 5610 5612 5615 5617 5620 5622 5623 5625 5627 5630 5633 5634 5637 5639 5640 5637 5640 5642 5643 5643 5644 5645 5646 5647 5648 5648 5648 5648 5647 5646 5644 5643 5641 5639 5636 5634 5633 5631 5629 5626 5624 5622 5622 5620 5621 5621 5621 5620 5620 5619 5618
5604 5606 5608 5611 5613 5616 5619 5622 5623 5623 5625 5628 5631 5633 5635 5637 5638 5638 5640 5641 5642 5643 5644 5644 5644 5644 5644 5643 5643 5643 5642 5640 5639 5637 5635 5633 5631 5628 5625 5623 5622 5620 5618 5616 5614 5614 5613 5613 5614 5615 5614 5614 5613 5612
5604 5606 5609 5612 5614 5617 5621 5622 5623 5625 5627 5629 5632 5635 5637 5637 5638 5638 5639 5641 5641 5642 5641 5641 5640 5639 5638 5638 5637 5636 5634 5632 5630 5628 5626 5624 5622 5619 5617 5615 5614 5611 5609 5608 5607 5606 5605 5607 5608 5608 5608 5607 5606 5605
5605 5608 5610 5613 5617 5619 5622 5624 5626 5629 5631 5633 5635 5635 5635 5635 5636 5637 5638 5637 5637 5636 5636 5634 5633 5632 5631 5629 5628 5626 5625 5623 5621 5618 5616 5614 5613 5611 5610 5607 5606 5603 5602 5601 5601 5601 5601 5602 5603 5603 5603 5602 5601 5600
5607 5608 5611 5614 5617 5619 5622 5626 5628 5630 5632 5633 5633 5634 5634 5634 5634 5634 5633 5632 5631 5630 5629 5627 5625 5624 5622 5621 5619 5618 5616 5614 5612 5610 5608 5607 5604 5603 5602 5600 5599 5599 5597 5598 5598 5597 5598 5598 5598 5598 5598 5597 5596 5594
5609 5611 5613 5615 5618 5620 5623 5626 5627 5629 5630 5631 5632 5632 5632 5632 5630 5629 5628 5627 5625 5623 5621 5619 5618 5616 5615 5613 5611 5610 5609 5608 5606 5605 5603 5600 5599 5599 5598 5596 5597 5598 5596 5596 5595 5595 5594 5593 5593 5593 5592 5592 5590 5589